Autres sites météorologiques:

MétéotemplateWebsite of another weatherstation

Saratoga.org


Vous trouverez notre info météo également à:

European Weather Network

WeatherCloud

Weather Underground

French Weather Network

AWEKAS

HAMweather, WeatherForYou, PWS Weather



Pas de vigilance météorologique particulière.    Il n'y a aucun avertissement

Select another period ( hide this area )

Les unités Période Custom range Directly to
métriques impériales les deux
par jour Par semaine mensuel Annuel
use both date-selectors for a custom range
previous Jour
With this date

WeatherUnderground graphs for this period ( click here )


par jour Résumé pour Mardi 22 octobre 2019
Temps Temp. ( °C ) Dew pt. ( °C ) Vent ( km/h ) de Rafale ( km/h ) Pression baro ( hPa ) Humid.( % ) Rainrate ( cm )
Maxi7,6 7,2 2,1 ENE ( 19/29 ) 5,0 1023,0 98 -
Moyenne6,5 6,1 0,4 ENE #35/70 2,3 1022,9 97 -
Mini5,4 5,1 -   0,0 1022,0 96 -
par jour Tabular details for Mardi 22 octobre 2019
Temps Temp. ( °C ) Dew pt. ( °C ) Vent ( km/h ) de Rafale ( km/h ) Pression baro ( hPa ) Humid.( % ) Rainrate ( cm )
00:00 7,4 6,8 1,3 ENE 4,0 1023,0 96 -
00:05 7,5 6,9 1,1 ENE 4,0 1023,0 96 -
00:10 7,5 6,9 0,2 ENE 2,9 1023,0 96 -
00:15 7,4 6,8 0,3 NNE 4,0 1023,0 96 -
00:20 7,5 6,9 1,3 NNE 4,7 1023,0 96 -
00:25 7,5 7,1 1,1 NE 4,7 1023,0 97 -
00:30 7,6 7,2 1,3 NE 5,0 1023,0 97 -
00:35 7,6 7,2 1,4 NE 5,0 1023,0 97 -
00:40 7,6 7,2 0,6 NNE 4,7 1023,0 97 -
00:45 7,6 7,2 1,3 NNE 4,7 1023,0 97 -
00:50 7,6 7,2 2,1 NE 4,7 1023,0 97 -
00:55 7,5 7,1 1,4 ENE 4,3 1023,0 97 -
01:00 7,4 6,9 1,0 ENE 3,2 1023,0 97 -
01:05 7,3 6,8 0,8 ENE 3,2 1023,0 97 -
01:10 7,2 6,6 0,2 ENE 2,6 1023,0 96 -
01:15 7,1 6,7   calme 1,8 1023,0 97 -
01:20 7,1 6,7 0,2 ENE 2,6 1023,0 97 -
01:25 7,1 6,7 0,6 ENE 4,0 1023,0 97 -
01:30 7,0 6,6 0,6 ENE 4,0 1023,0 97 -
01:35 7,0 6,6   calme 1,8 1023,0 97 -
01:40 6,8 6,3   calme   1023,0 97 -
01:45 6,6 6,2   calme   1023,0 97 -
01:50 6,7 6,3   calme 1,8 1023,0 97 -
01:55 6,8 6,3 0,2 ENE 2,6 1023,0 97 -
02:00 6,8 6,3 0,5 ENE 3,2 1023,0 97 -
02:05 6,7 6,3 0,2 ENE 3,2 1023,0 97 -
02:10 6,6 6,2 0,2 ENE 2,9 1023,0 97 -
02:15 6,5 6,1 0,3 ENE 2,9 1023,0 97 -
02:20 6,4 5,9 0,3 ENE 2,9 1023,0 97 -
02:25 6,4 5,9 0,2 ENE 2,9 1023,0 97 -
02:30 6,4 5,9 0,2 ENE 2,6 1023,0 97 -
02:35 6,3 5,8   calme   1023,0 97 -
02:40 6,3 5,8   calme   1023,0 97 -
02:45 6,5 6,2 0,3 ENE 2,9 1023,0 98 -
02:50 6,7 6,4 1,3 ENE 3,2 1023,0 98 -
02:55 6,8 6,5 1,4 ENE 3,2 1023,0 98 -
03:00 6,8 6,5 0,5 ENE 2,9 1023,0 98 -
03:05 6,7 6,4   calme 1,8 1023,0 98 -
03:10 6,5 6,2   calme   1023,0 98 -
03:15 6,3 5,8   calme   1023,0 97 -
03:20 6,2 5,8   calme   1023,0 97 -
03:25 6,2 5,9 0,2 Est 2,9 1023,0 98 -
03:30 6,1 5,8 0,2 Est 2,9 1023,0 98 -
03:35 6,0 5,6   calme   1023,0 97 -
03:40 6,0 5,7   calme 1,8 1023,0 98 -
03:45 5,9 5,6   calme 1,8 1023,0 98 -
03:50 5,8 5,5 0,2 ENE 2,6 1023,0 98 -
03:55 5,7 5,4 0,2 ENE 2,6 1023,0 98 -
04:00 5,6 5,3   calme   1023,0 98 -
04:05 5,6 5,3   calme   1023,0 98 -
04:10 5,6 5,3   calme   1023,0 98 -
04:15 5,6 5,3   calme   1023,0 98 -
04:20 5,6 5,3   calme   1023,0 98 -
04:25 5,7 5,4   calme   1023,0 98 -
04:30 5,8 5,5   calme   1023,0 98 -
04:35 5,9 5,6   calme   1023,0 98 -
04:40 5,8 5,5 0,2 ENE 3,2 1023,0 98 -
04:45 5,7 5,4 0,5 ENE 3,2 1023,0 98 -
04:50 5,7 5,4 0,3 ENE 2,9 1023,0 98 -
04:55 5,6 5,3   calme   1023,0 98 -
05:00 5,6 5,3   calme   1023,0 98 -
05:05 5,4 5,1 0,2 ENE 2,9 1022,0 98 -
05:10 5,5 5,2 0,6 ENE 2,9 1022,0 98 -
05:15 5,6 5,3 0,8 ENE 2,9 1022,0 98 -
05:20 5,6 5,3 0,3 ENE 2,6 1022,0 98 -
05:25 5,6 5,3   calme   1022,0 98 -
05:30 5,6 5,3 0,2 ENE 2,6 1022,0 98 -
05:35 5,8 5,5 0,5 ENE 2,6 1022,0 98 -
05:40 5,8 5,5 0,8 ENE 2,9 1022,0 98 -
05:45 5,8 5,5 1,3 ENE 2,9 1022,0 98 -
par jour Résumé pour Mardi 22 octobre 2019
Temps Temp. ( °C ) Dew pt. ( °C ) Vent ( km/h ) de Rafale ( km/h ) Pression baro ( hPa ) Humid.( % ) Rainrate ( cm )
Maxi7,6 7,2 2,1 ENE ( 19/29 ) 5,0 1023,0 98 -
Moyenne6,5 6,1 0,4 ENE #35/70 2,3 1022,9 97 -
Mini5,4 5,1 -   0,0 1022,0 96 -
par jour Tabular details for Mardi 22 octobre 2019
Temps Temp. ( °C ) Dew pt. ( °C ) Vent ( km/h ) de Rafale ( km/h ) Pression baro ( hPa ) Humid.( % ) Rainrate ( cm )
00:00 7,4 6,8 1,3 ENE 4,0 1023,0 96 -
00:05 7,5 6,9 1,1 ENE 4,0 1023,0 96 -
00:10 7,5 6,9 0,2 ENE 2,9 1023,0 96 -
00:15 7,4 6,8 0,3 NNE 4,0 1023,0 96 -
00:20 7,5 6,9 1,3 NNE 4,7 1023,0 96 -
00:25 7,5 7,1 1,1 NE 4,7 1023,0 97 -
00:30 7,6 7,2 1,3 NE 5,0 1023,0 97 -
00:35 7,6 7,2 1,4 NE 5,0 1023,0 97 -
00:40 7,6 7,2 0,6 NNE 4,7 1023,0 97 -
00:45 7,6 7,2 1,3 NNE 4,7 1023,0 97 -
00:50 7,6 7,2 2,1 NE 4,7 1023,0 97 -
00:55 7,5 7,1 1,4 ENE 4,3 1023,0 97 -
01:00 7,4 6,9 1,0 ENE 3,2 1023,0 97 -
01:05 7,3 6,8 0,8 ENE 3,2 1023,0 97 -
01:10 7,2 6,6 0,2 ENE 2,6 1023,0 96 -
01:15 7,1 6,7   calme 1,8 1023,0 97 -
01:20 7,1 6,7 0,2 ENE 2,6 1023,0 97 -
01:25 7,1 6,7 0,6 ENE 4,0 1023,0 97 -
01:30 7,0 6,6 0,6 ENE 4,0 1023,0 97 -
01:35 7,0 6,6   calme 1,8 1023,0 97 -
01:40 6,8 6,3   calme   1023,0 97 -
01:45 6,6 6,2   calme   1023,0 97 -
01:50 6,7 6,3   calme 1,8 1023,0 97 -
01:55 6,8 6,3 0,2 ENE 2,6 1023,0 97 -
02:00 6,8 6,3 0,5 ENE 3,2 1023,0 97 -
02:05 6,7 6,3 0,2 ENE 3,2 1023,0 97 -
02:10 6,6 6,2 0,2 ENE 2,9 1023,0 97 -
02:15 6,5 6,1 0,3 ENE 2,9 1023,0 97 -
02:20 6,4 5,9 0,3 ENE 2,9 1023,0 97 -
02:25 6,4 5,9 0,2 ENE 2,9 1023,0 97 -
02:30 6,4 5,9 0,2 ENE 2,6 1023,0 97 -
02:35 6,3 5,8   calme   1023,0 97 -
02:40 6,3 5,8   calme   1023,0 97 -
02:45 6,5 6,2 0,3 ENE 2,9 1023,0 98 -
02:50 6,7 6,4 1,3 ENE 3,2 1023,0 98 -
02:55 6,8 6,5 1,4 ENE 3,2 1023,0 98 -
03:00 6,8 6,5 0,5 ENE 2,9 1023,0 98 -
03:05 6,7 6,4   calme 1,8 1023,0 98 -
03:10 6,5 6,2   calme   1023,0 98 -
03:15 6,3 5,8   calme   1023,0 97 -
03:20 6,2 5,8   calme   1023,0 97 -
03:25 6,2 5,9 0,2 Est 2,9 1023,0 98 -
03:30 6,1 5,8 0,2 Est 2,9 1023,0 98 -
03:35 6,0 5,6   calme   1023,0 97 -
03:40 6,0 5,7   calme 1,8 1023,0 98 -
03:45 5,9 5,6   calme 1,8 1023,0 98 -
03:50 5,8 5,5 0,2 ENE 2,6 1023,0 98 -
03:55 5,7 5,4 0,2 ENE 2,6 1023,0 98 -
04:00 5,6 5,3   calme   1023,0 98 -
04:05 5,6 5,3   calme   1023,0 98 -
04:10 5,6 5,3   calme   1023,0 98 -
04:15 5,6 5,3   calme   1023,0 98 -
04:20 5,6 5,3   calme   1023,0 98 -
04:25 5,7 5,4   calme   1023,0 98 -
04:30 5,8 5,5   calme   1023,0 98 -
04:35 5,9 5,6   calme   1023,0 98 -
04:40 5,8 5,5 0,2 ENE 3,2 1023,0 98 -
04:45 5,7 5,4 0,5 ENE 3,2 1023,0 98 -
04:50 5,7 5,4 0,3 ENE 2,9 1023,0 98 -
04:55 5,6 5,3   calme   1023,0 98 -
05:00 5,6 5,3   calme   1023,0 98 -
05:05 5,4 5,1 0,2 ENE 2,9 1022,0 98 -
05:10 5,5 5,2 0,6 ENE 2,9 1022,0 98 -
05:15 5,6 5,3 0,8 ENE 2,9 1022,0 98 -
05:20 5,6 5,3 0,3 ENE 2,6 1022,0 98 -
05:25 5,6 5,3   calme   1022,0 98 -
05:30 5,6 5,3 0,2 ENE 2,6 1022,0 98 -
05:35 5,8 5,5 0,5 ENE 2,6 1022,0 98 -
05:40 5,8 5,5 0,8 ENE 2,9 1022,0 98 -
05:45 5,8 5,5 1,3 ENE 2,9 1022,0 98 -

Download your copy of this data-set  here

Our weather-data as stored at Weather Underground. Script d'après Jim McMurry. Adapté pour le modèle par Leuven-Template.eu